Location: Canazei
(46.4667°N, 11.7667°E)
Time: 07:28:48
(UTC+00:00)

Spot 4 Rocket - Pass Details

Date: 21 April 2021
Orbit: 777 x 780 km, 98.7° (Epoch: 05 May)

Event Time Altitude Azimuth Distance (km) Brightness Sun altitude
Rises 03:16:42 0° 10° (N) 3,278 7.9 -10.0°
Reaches altitude 10° 03:19:03 10° 7° (N) 2,345 7.0 -9.7°
Maximum altitude 03:24:06 56° 290° (WNW) 925 4.2 -8.9°
Drops below altitude 10° 03:29:06 10° 213° (SSW) 2,327 6.0 -8.2°
Enters shadow 03:30:17 - 211° (SSW) 2,789 6.4 -8.0°
